Regional Weather Roundup
Issued by NWS

Home | Current Version | Previous Version | Text Only | Print | Product List | Glossary Off
Versions: 1 2 3 4 5 6 7 8 9 10 11 12 13 14 15 16 17 18 19 20 21 22 23 24 25 26 27

000
ASUS45 KSLC 161710
RWRUT

UTAH REGIONAL WEATHER ROUNDUP
NATIONAL WEATHER SERVICE SALT LAKE CITY UT
1100 AM MDT MON OCT 16 2017

UTZ001>011-023>025-161800-

NORTHERN UTAH

CITY           SKY/WX    TMP DP  RH WIND       PRES   REMARKS
BRIGHAM CITY   SUNNY     46  25  44 CALM      30.46S
HILL AFB       SUNNY     47  20  33 E10       30.44R
LOGAN          SUNNY     44  24  45 NE3       30.45S
OGDEN          SUNNY     50  23  34 N3        30.44R
SALT LAKE CITY PTSUNNY   50  26  39 CALM      30.44S
TOOELE VALLEY  SUNNY     46  27  46 CALM      30.45S
WENDOVER       SUNNY     42  18  37 E5        30.46R
WEST JORDAN    SUNNY     48  28  46 SE3       30.45F

$$

UTZ011>015-024>027-161800-

CENTRAL/NORTHEAST UTAH

CITY           SKY/WX    TMP DP  RH WIND       PRES   REMARKS
PROVO AIRPORT  MOSUNNY   46  27  46 W5        30.46S
MOAB/CANYONLAN SUNNY     54  12  18 E5        30.46F
DELTA          SUNNY     45  19  36 CALM      30.44S
PRICE          SUNNY     50   7  17 VRB3      30.50R
ROOSEVELT      SUNNY     45  18  33 CALM      30.50F
VERNAL         SUNNY     47  18  31 S5        30.48S

$$

UTZ013>016-019>022-027-161800-

SOUTHERN UTAH

CITY           SKY/WX    TMP DP  RH WIND       PRES   REMARKS
BRYCE CANYON   SUNNY     56  -5   8 SE8       30.53F
CEDAR CITY     SUNNY     51  15  23 CALM      30.42S
MILFORD        SUNNY     46  15  28 S8        30.42F
ST GEORGE      SUNNY     55   9  16 CALM      30.38F
HANKSVILLE     SUNNY     46  10  23 CALM      30.51F
BLANDING         N/A     58   9  14 SW5       30.57S

$$

REGIONAL REPORTS     COLORADO/ARIZONA

CITY           SKY/WX    TMP DP  RH WIND       PRES   REMARKS
CRAIG, CO      SUNNY     55  16  21 NE8       30.46F
GRAND JUNCTION SUNNY     53  16  23 S6        30.48F
RIFLE, CO      SUNNY     46  18  32 CALM      30.50F
MONTROSE, CO   SUNNY     50  11  20 NW5       30.52F
CORTEZ, CO     SUNNY     59   6  12 CALM      30.49F
COLORADO CITY    N/A     64   9  11 SE3       30.43F
PAGE, AZ       SUNNY     55  12  18 CALM      30.45F
GRAND CANYON   SUNNY     68  13  12 CALM      30.49R
KINGMAN, AZ    SUNNY     70  12  10 N5        30.31S
FLAGSTAFF, AZ  SUNNY     64  17  16 CALM      30.50F

$$

REGIONAL REPORTS    NEVADA/IDAHO/WYOMING

CITY           SKY/WX    TMP DP  RH WIND       PRES   REMARKS
LAS VEGAS, NV  MOSUNNY   69  13  11 CALM      30.28S
ELY, NY        SUNNY     54   0  11 S8        30.44F
ELKO, NV       SUNNY     40  13  33 CALM      30.44S
POCATELLO, ID  CLOUDY    44  28  53 NE7       30.43S
BURLEY, ID     SUNNY     46  22  38 CALM      30.39S
FORT BRIDGER,    N/A     58   6  12 W15       30.48S
EVANSTON, WY   SUNNY     52   9  17 SW13      30.47S
ROCK SPRINGS,  SUNNY     50  11  20 W6        30.44F
KEMMERER, WY   SUNNY     50   7  17 W10       30.46S

$$




USA.gov is the U.S. government's official web portal to all federal, state and local government web resources and services.